"2010-05-25 00:00:00",141580,12.23,311.3,8.41,1.678,13.36,104.9441,11.93,12.95,15.9,0,110.3,13.43,12.72,273.3
"2010-05-25 00:00:30",141581,9.69,308.6,3.982,0.8,11.21,104.9444,11.93,12.87,16.35,0,110.3,13.47,12.72,270.6
"2010-05-25 00:01:00",141582,10.82,309.8,9.18,0.853,13.36,104.9453,11.93,12.92,16.79,0,110.3,13.43,12.73,271.8
"2010-05-25 00:01:30",141583,14.6,311.8,8.86,3.347,14.17,104.9474,11.94,13.11,16.78,0,110.3,13.44,12.73,273.8
"2010-05-25 00:02:00",141584,18.44,308.3,6.561,1.612,14.78,104.9483,11.94,13.14,15.68,0,110.3,13.44,12.73,270.3
"2010-05-25 00:02:30",141585,19.16,304.2,6.338,0.993,14.6,104.9512,11.95,13.14,15.26,0,110.3,13.44,12.74,266.2
"2010-05-25 00:03:00",141586,17.9,305.1,9,1.769,14.08,104.9497,11.94,13.09,15.41,0,110.3,13.44,12.74,267.1
"2010-05-25 00:03:30",141587,16.82,301.6,6.243,1.287,13.34,104.9515,11.95,12.95,15.7,0,110.3,13.44,12.74,263.6
"2010-05-25 00:04:00",141588,16.27,303,3.918,1.875,11.31,104.958,11.97,12.96,15.99,0,110.3,13.45,12.76,265.0
"2010-05-25 00:04:30",141589,18.99,304,7.687,1.465,12.46,104.9649,11.98,13.01,14.77,0,110.3,13.45,12.78,266.0
"2010-05-25 00:05:00",141590,20.63,310.4,6.697,1.346,14.72,104.972,12,13.13,14.5,0,110.3,13.45,12.79,272.4
"2010-05-25 00:05:30",141591,20.39,308.7,5.543,1.614,14.86,104.9709,12,13.23,14.66,0,110.3,13.45,12.79,270.7
"2010-05-25 00:06:00",141592,19.16,311.8,5.32,1.613,14.53,104.9574,11.96,13.09,14.38,0,110.3,13.45,12.76,273.8
"2010-05-25 00:06:30",141593,18.29,304.8,6.55,1.22,13.95,104.9455,11.93,13,14.34,0,110.2,13.45,12.73,266.8
"2010-05-25 00:07:00",141594,19.17,301.4,7.04,1.819,12.63,104.9458,11.93,12.98,14.64,0,110.2,13.45,12.73,263.4
"2010-05-25 00:07:30",141595,18.96,301.3,6.539,1.507,12.44,104.9458,11.93,12.95,14.78,0,110.2,13.45,12.73,263.3
"2010-05-25 00:08:00",141596,20.82,307.2,6.286,1.403,14.72,104.9458,11.93,13.09,15.44,0,110.2,13.45,12.73,269.2
"2010-05-25 00:08:30",141597,18.33,309.9,6.419,1.894,13.85,104.9452,11.93,13.05,14.98,0,110.2,13.45,12.73,271.9
"2010-05-25 00:09:00",141598,19.3,310.6,7.343,1.668,14.13,104.9376,11.91,12.95,14.7,0,110.2,13.45,12.71,272.6
"2010-05-25 00:09:30",141599,19.06,310.9,7.563,1.296,14.47,104.9187,11.86,13.07,14.85,0,110.2,13.45,12.66,272.9
"2010-05-25 00:10:00",141600,19.08,309.2,6.535,1.243,14.34,104.9119,11.85,12.97,14.52,0,110.2,13.45,12.64,271.2
"2010-05-25 00:10:30",141601,18.25,306.8,5.372,1.82,12.35,104.9119,11.85,12.89,14.64,0,110.2,13.45,12.64,268.8
"2010-05-25 00:11:00",141602,19.34,310.5,6.152,2.035,14.46,104.9114,11.85,12.99,14.91,0,110.2,13.45,12.64,272.5
"2010-05-25 00:11:30",141603,19.27,310.7,7.551,1.361,14.1,104.9015,11.82,12.92,14.72,0,110.2,13.45,12.61,272.7
"2010-05-25 00:12:00",141604,18.17,305.7,7.926,1.574,12.73,104.8795,11.76,12.92,14.69,0,110.2,13.46,12.56,267.7
"2010-05-25 00:12:30",141605,18.45,304.8,6.79,1.203,13.97,104.8781,11.76,13.01,14.97,0,110.2,13.45,12.55,266.8
"2010-05-25 00:13:00",141606,17.08,309.6,5.134,1.182,14.17,104.8781,11.76,12.99,14.98,0,110.2,13.45,12.55,271.6
"2010-05-25 00:13:30",141607,18.91,304.6,5.837,1.332,13.7,104.8781,11.76,12.87,15.05,0,110.2,13.45,12.55,266.6
"2010-05-25 00:14:00",141608,19.82,309.5,6.941,1.271,14.12,104.8721,11.75,12.89,15.39,0,110.2,13.45,12.54,271.5
"2010-05-25 00:14:30",141609,18.92,308.1,5.619,1.074,13.35,104.8552,11.7,12.94,15.16,0,110.2,13.45,12.49,270.1
"2010-05-25 00:15:00",141610,20.03,311.5,6.129,1.198,14.02,104.8459,11.68,12.82,14.85,0,110.2,13.45,12.47,273.5
"2010-05-25 00:15:30",141611,20.2,309.1,7.409,1.741,14.42,104.8442,11.67,12.86,15.07,0,110.2,13.45,12.47,271.1
"2010-05-25 00:16:00",141612,20.63,315.9,7.336,1.333,14.52,104.845,11.68,12.91,15.5,0,110.2,13.45,12.47,277.9
"2010-05-25 00:16:30",141613,20.37,314,6.144,1.519,15.16,104.8442,11.67,12.89,15.21,0,110.2,13.45,12.47,276.0
"2010-05-25 00:17:00",141614,17.96,307.7,8.11,1.515,13.45,104.8456,11.68,12.83,14.71,0,110.2,13.45,12.47,269.7
"2010-05-25 00:17:30",141615,16.74,304.9,7.648,1.301,12.56,104.8476,11.68,12.84,15.17,0,110.2,13.45,12.48,266.9
"2010-05-25 00:18:00",141616,16.04,299.6,5.547,1.369,11.56,104.8529,11.7,12.7,14.69,0,110.2,13.45,12.49,261.6
"2010-05-25 00:18:30",141617,17.19,309.5,6.839,1.57,14.86,104.8535,11.7,12.82,14.84,0,110.2,13.45,12.49,271.5
"2010-05-25 00:19:00",141618,16.11,303.6,5.355,0.879,11.85,104.8569,11.71,12.74,15,0,110.2,13.45,12.50,265.6
"2010-05-25 00:19:30",141619,17.66,313.9,7.391,1.481,15.51,104.8521,11.69,12.95,15.19,0,110.2,13.45,12.49,275.9
"2010-05-25 00:20:00",141620,16.98,311.7,7.051,1.24,14.36,104.8456,11.68,12.9,14.95,0,110.2,13.46,12.47,273.7
"2010-05-25 00:20:30",141621,17.16,308.4,8.54,0.821,12.93,104.8442,11.67,12.77,15.06,0,110.2,13.46,12.47,270.4
"2010-05-25 00:21:00",141622,17.5,307.1,5.897,0.742,13.14,104.8442,11.67,12.8,14.56,0,110.2,13.46,12.47,269.1
"2010-05-25 00:21:30",141623,14.23,303.4,5.467,1,11.35,104.8442,11.67,12.74,14.38,0,110.2,13.46,12.47,265.4
"2010-05-25 00:22:00",141624,15.34,313,6.503,1.172,14.02,104.8442,11.67,12.87,14.74,0,110.2,13.46,12.47,275.0
"2010-05-25 00:22:30",141625,15.4,315.1,5.211,0.874,15.08,104.8422,11.67,12.75,15.19,0,110.2,13.46,12.46,277.1
"2010-05-25 00:23:00",141626,15.9,303.8,7.62,1.2,14.48,104.825,11.62,12.85,15.65,0,110.2,13.46,12.42,265.8
"2010-05-25 00:23:30",141627,15.57,300.3,6.522,1.237,14.35,104.8174,11.6,12.87,15.51,0,110.2,13.46,12.40,262.3
"2010-05-25 00:24:00",141628,13.9,294.5,4.932,1.454,11.57,104.8125,11.59,12.65,15.62,0,110.2,13.46,12.39,256.5
"2010-05-25 00:24:30",141629,14.04,300.5,6.048,1.083,12.04,104.8103,11.59,12.61,15.83,0,110.2,13.46,12.38,262.5
"2010-05-25 00:25:00",141630,13.34,311,7.942,1.316,13.19,104.8106,11.59,12.71,16.17,0,110.2,13.46,12.38,273.0
"2010-05-25 00:25:30",141631,14.02,309.6,5.603,1.502,13.44,104.8103,11.59,12.73,16.6,0,110.2,13.47,12.38,271.6
"2010-05-25 00:26:00",141632,13.83,306.4,5.59,1.494,13.11,104.8103,11.59,12.7,16.74,0,110.3,13.47,12.38,268.4
"2010-05-25 00:26:30",141633,13.96,302.4,6.498,1.095,15.34,104.8103,11.59,12.81,16.41,0,110.2,13.47,12.38,264.4
"2010-05-25 00:27:00",141634,13.88,304.7,7.222,1.323,13.85,104.8103,11.59,12.73,16.2,0,110.2,13.46,12.38,266.7
"2010-05-25 00:27:30",141635,13.21,293.8,4.213,0.64,10.78,104.8103,11.59,12.57,16.12,0,110.2,13.5,12.38,255.8
"2010-05-25 00:28:00",141636,12,298.2,5.495,1.252,11.78,104.8117,11.59,12.55,16.39,0,110.2,13.46,12.38,260.2
"2010-05-25 00:28:30",141637,11.77,299.8,6.392,1.686,13.24,104.812,11.59,12.72,16.88,0,110.2,13.46,12.38,261.8
"2010-05-25 00:29:00",141638,10.55,298.1,5.427,1.118,11.42,104.8111,11.59,12.57,16.5,0,110.2,13.46,12.38,260.1
"2010-05-25 00:29:30",141639,12.33,304.6,6.65,1.77,12.72,104.8103,11.59,12.67,16.64,0,110.2,13.46,12.38,266.6
"2010-05-25 00:30:00",141640,14.5,310.2,5.763,2.047,15.04,104.8103,11.59,12.83,17.17,0,110.2,13.45,12.38,272.2
"2010-05-25 00:30:30",141641,16.11,309.3,6.848,1.137,14.09,104.8103,11.59,12.77,17.11,0,110.2,13.45,12.38,271.3
"2010-05-25 00:31:00",141642,14.47,307.4,6.101,1.664,11.84,104.8103,11.59,12.6,16.94,0,110.2,13.45,12.38,269.4
"2010-05-25 00:31:30",141643,14.12,311.1,6.796,1.221,12.78,104.808,11.58,12.69,16.78,0,110.2,13.45,12.37,273.1
"2010-05-25 00:32:00",141644,13.61,306.6,7.222,1.502,11.52,104.797,11.55,12.58,16.57,0,110.2,13.45,12.35,268.6
"2010-05-25 00:32:30",141645,12.33,299.7,6.582,1.194,12.43,104.7787,11.51,12.68,16.73,0,110.2,13.45,12.30,261.7
"2010-05-25 00:33:00",141646,14.95,313,5.431,1.104,14.4,104.7764,11.5,12.74,17.28,0,110.2,13.45,12.29,275.0
"2010-05-25 00:33:30",141647,14.19,308.7,6.48,1.185,14.58,104.7764,11.5,12.67,17.41,0,110.2,13.45,12.29,270.7
"2010-05-25 00:34:00",141648,11.88,299.4,5.076,1.107,11.61,104.7764,11.5,12.59,17.02,0,110.2,13.45,12.29,261.4
"2010-05-25 00:34:30",141649,12.15,303.8,5.686,1.28,12.35,104.7764,11.5,12.49,17.09,0,110.2,13.44,12.29,265.8
"2010-05-25 00:35:00",141650,12.3,307.8,9.34,0.971,12.73,104.7764,11.5,12.6,17.43,0,110.2,13.45,12.29,269.8
"2010-05-25 00:35:30",141651,11.66,300.1,7.851,1.379,12.29,104.7764,11.5,12.62,17.63,0,110.2,13.45,12.29,262.1
"2010-05-25 00:36:00",141652,12.07,299.9,6.999,1.411,13.37,104.7764,11.5,12.58,17.75,0,110.2,13.45,12.29,261.9
"2010-05-25 00:36:30",141653,12.1,295.6,8.57,1.752,14.6,104.7764,11.5,12.64,17.87,0,110.2,13.46,12.29,257.6
"2010-05-25 00:37:00",141654,12.37,277.5,6.295,1.218,12.58,104.7764,11.5,12.57,18.19,0,110.2,13.46,12.29,239.5
"2010-05-25 00:37:30",141655,12.17,279.9,8.51,0.808,12.72,104.797,11.55,12.6,17.64,0,110.2,13.45,12.35,241.9
"2010-05-25 00:38:00",141656,12.35,282.8,5.132,0.998,11.85,104.8097,11.59,12.59,17.72,0,110.2,13.45,12.38,244.8
"2010-05-25 00:38:30",141657,12.33,288.9,4.816,1.43,11.59,104.8103,11.59,12.57,17.03,0,110.2,13.45,12.38,250.9
"2010-05-25 00:39:00",141658,13.58,293.6,9.62,1.2,13.54,104.8145,11.6,12.59,17.35,0,110.2,13.45,12.39,255.6
"2010-05-25 00:39:30",141659,15.05,288.2,8.01,2.122,13.78,104.8326,11.64,12.71,16.3,0,110.2,13.45,12.44,250.2
"2010-05-25 00:40:00",141660,17.15,292.1,9.99,1.273,13.66,104.8397,11.66,12.75,15.53,0,110.2,13.45,12.45,254.1
"2010-05-25 00:40:30",141661,16.16,291.4,7.362,1.46,13.93,104.8436,11.67,12.73,15.56,0,110.2,13.45,12.46,253.4
"2010-05-25 00:41:00",141662,15.55,290.1,6.08,1.37,13.52,104.8442,11.67,12.65,15.25,0,110.2,13.45,12.47,252.1
"2010-05-25 00:41:30",141663,15.28,282.3,7.654,1.5,13.18,104.8442,11.67,12.68,15.69,0,110.2,13.45,12.47,244.3
"2010-05-25 00:42:00",141664,16.08,282.1,6.065,1.581,13.4,104.8442,11.67,12.7,16.03,0,110.2,13.45,12.47,244.1
"2010-05-25 00:42:30",141665,14.36,280.8,7.482,0.807,12.42,104.8442,11.67,12.74,15.88,0,110.2,13.45,12.47,242.8
"2010-05-25 00:43:00",141666,13.39,297.4,7.416,1.051,14.75,104.8442,11.67,12.72,16.28,0,110.2,13.45,12.47,259.4
"2010-05-25 00:43:30",141667,14.24,287.9,6.446,1.303,13.57,104.8442,11.67,12.8,16.1,0,110.2,13.45,12.47,249.9
"2010-05-25 00:44:00",141668,14.79,289.4,7.3,1.244,13.76,104.8442,11.67,12.71,15.72,0,110.2,13.45,12.47,251.4
"2010-05-25 00:44:30",141669,15.04,286.4,4.206,0.863,12.05,104.8442,11.67,12.66,16.49,0,110.2,13.44,12.47,248.4
"2010-05-25 00:45:00",141670,15.17,295.9,6.773,1.257,13.77,104.8442,11.67,12.73,17.03,0,110.2,13.44,12.47,257.9
"2010-05-25 00:45:30",141671,15.32,299.4,6.544,1.196,14.73,104.8442,11.67,12.79,17.42,0,110.2,13.44,12.47,261.4
"2010-05-25 00:46:00",141672,14.39,300.5,7.324,1.372,13.56,104.8442,11.67,12.81,17.56,0,110.2,13.44,12.47,262.5
"2010-05-25 00:46:30",141673,13.66,300.9,4.902,1.01,12.27,104.8442,11.67,12.68,17.78,0,110.2,13.44,12.47,262.9
"2010-05-25 00:47:00",141674,13.28,311.2,5.22,1.33,13.6,104.8442,11.67,12.77,18.09,0,110.2,13.43,12.47,273.2
"2010-05-25 00:47:30",141675,11.17,309.4,4.285,0.647,11.58,104.8408,11.66,12.69,18.54,0,110.2,13.47,12.46,271.4
"2010-05-25 00:48:00",141676,12.11,317.5,7.121,1.646,13.21,104.8346,11.65,12.7,18.73,0,110.2,13.44,12.44,279.5
"2010-05-25 00:48:30",141677,10.21,315.7,5.884,1.351,12.96,104.8145,11.6,12.69,18.54,0,110.2,13.44,12.39,277.7
"2010-05-25 00:49:00",141678,11.2,313.9,6.407,1.234,13.28,104.8103,11.59,12.65,18.44,0,110.2,13.44,12.38,275.9
"2010-05-25 00:49:30",141679,11.99,318.3,5.347,1.298,14.79,104.8063,11.58,12.75,18.27,0,110.2,13.44,12.37,280.3
"2010-05-25 00:50:00",141680,11.38,307.6,6.512,1.225,12.47,104.795,11.55,12.57,17.85,0,110.2,13.44,12.34,269.6
"2010-05-25 00:50:30",141681,11.76,314.8,8.27,1.516,13.13,104.7778,11.5,12.63,18.7,0,110.2,13.44,12.30,276.8
"2010-05-25 00:51:00",141682,10.83,309.1,5.245,0.703,11.12,104.7764,11.5,12.6,18.25,0,110.2,13.45,12.29,271.1
"2010-05-25 00:51:30",141683,11.36,308.6,8.43,1.486,12.87,104.7764,11.5,12.65,18.81,0,110.2,13.45,12.29,270.6
"2010-05-25 00:52:00",141684,11.57,300.1,6.478,1.381,11.97,104.7764,11.5,12.54,18,0,110.2,13.45,12.29,262.1
"2010-05-25 00:52:30",141685,12.38,315.6,8.32,1.267,14.5,104.7764,11.5,12.63,18.42,0,110.2,13.45,12.29,277.6
"2010-05-25 00:53:00",141686,12.78,316.3,6.367,1.494,14.72,104.7764,11.5,12.66,18.37,0,110.2,13.45,12.29,278.3
"2010-05-25 00:53:30",141687,11.85,311.2,7.155,1.268,12.15,104.7764,11.5,12.53,17.87,0,110.2,13.46,12.29,273.2
"2010-05-25 00:54:00",141688,11.71,311.6,6.571,1.297,12.19,104.7764,11.5,12.59,17.8,0,110.2,13.45,12.29,273.6
"2010-05-25 00:54:30",141689,11.53,309.6,6.07,1.395,11.94,104.7747,11.5,12.46,17.84,0,110.2,13.45,12.29,271.6
"2010-05-25 00:55:00",141690,11.51,307.6,5.311,1.003,12.28,104.7696,11.48,12.6,18.26,0,110.2,13.45,12.27,269.6
"2010-05-25 00:55:30",141691,11.37,303.5,8.77,1.522,12.33,104.7572,11.45,12.45,17.43,0,110.2,13.45,12.24,265.5
"2010-05-25 00:56:00",141692,14.51,307.6,5.361,1.186,15.06,104.7544,11.44,12.55,17.41,0,110.2,13.45,12.24,269.6
"2010-05-25 00:56:30",141693,14.52,302.6,6.257,1.383,13.64,104.7558,11.45,12.66,17.53,0,110.2,13.45,12.24,264.6
"2010-05-25 00:57:00",141694,13.8,303.6,7.613,1.84,13.49,104.751,11.44,12.55,17.83,0,110.2,13.45,12.23,265.6
"2010-05-25 00:57:30",141695,11.38,296.4,7.375,0.777,11.62,104.7448,11.42,12.51,17.71,0,110.2,13.45,12.21,258.4
"2010-05-25 00:58:00",141696,13.92,308.2,6.543,1.496,14.64,104.7425,11.41,12.55,17.61,0,110.2,13.45,12.21,270.2
"2010-05-25 00:58:30",141697,12.86,297.2,10.28,1.463,13.05,104.7425,11.41,12.5,17.27,0,110.2,13.45,12.21,259.2
"2010-05-25 00:59:00",141698,13.85,299.1,6.447,2.196,13.26,104.7425,11.41,12.56,17.56,0,110.2,13.45,12.21,261.1
"2010-05-25 00:59:30",141699,13.83,309.4,9.58,1.449,12.36,104.7425,11.41,12.57,17.68,0,110.2,13.45,12.21,271.4
"2010-05-25 01:00:00",141700,12.49,314.2,7.584,1.91,12.94,104.7425,11.41,12.56,17.72,0,110.2,13.45,12.21,276.2
"2010-05-25 01:00:30",141701,12.69,317.2,6.756,1.317,13.76,104.7425,11.41,12.51,17.94,0,110.2,13.45,12.21,279.2
"2010-05-25 01:01:00",141702,12.9,308.7,9.41,1.285,12.15,104.7425,11.41,12.35,17.72,0,110.2,13.45,12.21,270.7
"2010-05-25 01:01:30",141703,13.56,308.8,6.83,1.534,13.22,104.7369,11.4,12.57,17.68,0,110.2,13.45,12.19,270.8
"2010-05-25 01:02:00",141704,15.29,308.8,6.008,1.162,12.72,104.7284,11.38,12.41,17.64,0,110.2,13.45,12.17,270.8
"2010-05-25 01:02:30",141705,15.33,304.9,6.773,1.69,14.68,104.7248,11.37,12.56,18.18,0,110.2,13.44,12.16,266.9
"2010-05-25 01:03:00",141706,15.72,302.6,6.81,1.442,13.12,104.7245,11.37,12.45,18.03,0,110.2,13.44,12.16,264.6
"2010-05-25 01:03:30",141707,14.89,301.5,6.766,0.968,12.77,104.7163,11.35,12.47,17.67,0,110.2,13.44,12.14,263.5
"2010-05-25 01:04:00",141708,15.26,307.7,7.43,1.664,13.25,104.7157,11.34,12.47,17.56,0,110.2,13.44,12.14,269.7
"2010-05-25 01:04:30",141709,13.64,298.2,7.183,1.294,12.39,104.7146,11.34,12.48,17.81,0,110.2,13.44,12.13,260.2
"2010-05-25 01:05:00",141710,14.56,309.3,6.527,1.241,14.12,104.7087,11.33,12.48,17.94,0,110.2,13.44,12.12,271.3
"2010-05-25 01:05:30",141711,13.22,312.9,7.932,1.525,13.88,104.7087,11.33,12.54,18.42,0,110.2,13.44,12.12,274.9
"2010-05-25 01:06:00",141712,12.26,311.7,5.727,1.099,12.74,104.7087,11.33,12.45,18.46,0,110.2,13.45,12.12,273.7
"2010-05-25 01:06:30",141713,14.04,314,8.38,1.387,12.8,104.7087,11.33,12.32,18.04,0,110.2,13.45,12.12,276.0
"2010-05-25 01:07:00",141714,13.53,312.2,5.916,1.078,13.52,104.7087,11.33,12.45,18.17,0,110.2,13.46,12.12,274.2
"2010-05-25 01:07:30",141715,13.34,309,5.563,1.118,12.26,104.7056,11.32,12.39,18.51,0,110.2,13.46,12.11,271.0
"2010-05-25 01:08:00",141716,13.56,314.3,6.926,1.267,13.66,104.6923,11.28,12.53,18.45,0,110.2,13.46,12.08,276.3
"2010-05-25 01:08:30",141717,14.49,316.9,6.558,1.344,13.97,104.6765,11.24,12.46,18.49,0,110.2,13.46,12.04,278.9
"2010-05-25 01:09:00",141718,14.24,315.8,7.798,1.527,13.25,104.6748,11.24,12.44,18.36,0,110.2,13.47,12.03,277.8
"2010-05-25 01:09:30",141719,12.77,308.8,0.952,0.376,10.93,104.6748,11.24,12.31,18.24,0,110.2,13.5,12.03,270.8
"2010-05-25 01:10:00",141720,13.54,315.2,7.458,1.205,13.1,104.6763,11.24,12.29,18.03,0,110.2,13.46,12.04,277.2
"2010-05-25 01:10:30",141721,14.56,311.2,6.575,1.496,13.96,104.6754,11.24,12.42,17.9,0,110.2,13.46,12.03,273.2
"2010-05-25 01:11:00",141722,15.66,308.1,7.16,1.336,13.95,104.6775,11.25,12.51,18.12,0,110.2,13.46,12.04,270.1
"2010-05-25 01:11:30",141723,16.62,313.3,5.512,1.124,15.13,104.6777,11.25,12.51,18.15,0,110.2,13.46,12.04,275.3
"2010-05-25 01:12:00",141724,14.91,311.9,8.49,1.671,13.97,104.678,11.25,12.39,18.04,0,110.2,13.46,12.04,273.9
"2010-05-25 01:12:30",141725,12.71,309.2,4.878,1.092,12.67,104.6786,11.25,12.36,18.3,0,110.2,13.46,12.04,271.2
"2010-05-25 01:13:00",141726,12.58,310.4,4.259,0.971,11.19,104.6786,11.25,12.31,18.48,0,110.2,13.49,12.04,272.4
"2010-05-25 01:13:30",141727,14.89,313.6,9.43,1.94,13.85,104.6789,11.25,12.37,18.64,0,110.2,13.46,12.04,275.6
"2010-05-25 01:14:00",141728,15,312.8,6.329,1.19,14.5,104.681,11.26,12.42,18.33,0,110.2,13.46,12.05,274.8
"2010-05-25 01:14:30",141729,14.08,311.1,7.117,1.164,13.94,104.681,11.26,12.41,18.31,0,110.2,13.46,12.05,273.1
"2010-05-25 01:15:00",141730,14.84,313.8,6.308,1.364,14.75,104.6801,11.25,12.43,17.93,0,110.2,13.46,12.05,275.8
"2010-05-25 01:15:30",141731,13.45,316.8,7.364,1.737,12.97,104.6801,11.25,12.31,18.45,0,110.2,13.46,12.05,278.8
"2010-05-25 01:16:00",141732,10.69,309.8,2.596,0.31,10.68,104.6786,11.25,12.19,18.84,0,110.2,13.49,12.04,271.8
"2010-05-25 01:16:30",141733,11.68,309.6,2.783,0.539,11.02,104.6831,11.26,12.25,18.49,0,110.2,13.5,12.05,271.6
"2010-05-25 01:17:00",141734,12.98,316.5,6.565,1.366,14.37,104.6822,11.26,12.44,18.54,0,110.1,13.46,12.05,278.5
"2010-05-25 01:17:30",141735,12.68,318.5,7.966,1.213,14.65,104.6828,11.26,12.45,19.04,0,110.2,13.46,12.05,280.5
"2010-05-25 01:18:00",141736,13.41,320.9,5.754,1.159,15.51,104.684,11.26,12.49,18.64,0,110.2,13.46,12.06,282.9
"2010-05-25 01:18:30",141737,12.96,310.5,7.991,1.389,12.2,104.6834,11.26,12.3,18.29,0,110.2,13.46,12.05,272.5
"2010-05-25 01:19:00",141738,12.72,311,6.94,0.974,12.43,104.6846,11.27,12.32,18.62,0,110.2,13.46,12.06,273.0
"2010-05-25 01:19:30",141739,12.37,302.9,4.008,0.483,10.86,104.686,11.27,12.18,18.51,0,110.2,13.5,12.06,264.9
"2010-05-25 01:20:00",141740,10.85,302,11.18,1.492,12.16,104.6843,11.26,12.35,18.93,0,110.2,13.46,12.06,264.0
"2010-05-25 01:20:30",141741,13.07,312.4,6.224,1.423,14.65,104.6848,11.27,12.41,19.13,0,110.2,13.46,12.06,274.4
"2010-05-25 01:21:00",141742,13.44,316.5,5.474,1.399,14.85,104.6794,11.25,12.43,18.84,0,110.2,13.46,12.04,278.5
"2010-05-25 01:21:30",141743,12.18,316.3,6.722,1.393,14.62,104.6775,11.25,12.41,18.66,0,110.2,13.46,12.04,278.3
"2010-05-25 01:22:00",141744,11.91,313.8,4.776,1.101,12.28,104.6723,11.23,12.2,18.48,0,110.2,13.46,12.03,275.8
"2010-05-25 01:22:30",141745,10.89,315.2,6.443,1.042,11.51,104.6715,11.23,12.3,18.55,0,110.2,13.46,12.02,277.2
"2010-05-25 01:23:00",141746,10.17,310.8,1.267,0.381,10.75,104.664,11.21,12.16,18.72,0,110.2,13.49,12.00,272.8
"2010-05-25 01:23:30",141747,10.6,315.8,7.533,1.024,12.69,104.6616,11.21,12.36,19.11,0,110.2,13.46,12.00,277.8
"2010-05-25 01:24:00",141748,11.29,324.5,5.009,1.023,15.38,104.6663,11.22,12.4,19.39,0,110.2,13.46,12.01,286.5
"2010-05-25 01:24:30",141749,12.34,324.1,5.304,1.071,14.93,104.6663,11.22,12.42,19.39,0,110.2,13.46,12.01,286.1
"2010-05-25 01:25:00",141750,12.14,316.6,5.941,1.36,13.53,104.6633,11.21,12.34,19.08,0,110.2,13.46,12.00,278.6
"2010-05-25 01:25:30",141751,13.14,317.3,6.179,1.649,12.65,104.6611,11.21,12.25,18.96,0,110.2,13.46,12.00,279.3
"2010-05-25 01:26:00",141752,12.23,310.8,1.779,0.238,10.71,104.6569,11.19,12.12,18.46,0,110.2,13.5,11.99,272.8
"2010-05-25 01:26:30",141753,12.74,310.3,1.183,0.237,10.93,104.6632,11.21,12.1,18.13,0,110.2,13.5,12.00,272.3
"2010-05-25 01:27:00",141754,14.08,318.2,7.787,1.352,13.82,104.6609,11.2,12.29,18.39,0,110.2,13.47,12.00,280.2
"2010-05-25 01:27:30",141755,15.18,324.7,4.515,0.825,15.9,104.663,11.21,12.44,18.49,0,110.2,13.47,12.00,286.7
"2010-05-25 01:28:00",141756,15.63,319.6,3.299,0.528,15.88,104.6655,11.22,12.4,18.35,0,110.2,13.47,12.01,281.6
"2010-05-25 01:28:30",141757,13.78,313.8,5.26,1.213,12.44,104.6729,11.24,12.18,18.06,0,110.2,13.47,12.03,275.8
"2010-05-25 01:29:00",141758,13.24,316.2,7.443,1.035,12.72,104.6761,11.24,12.23,18.15,0,110.2,13.47,12.03,278.2
"2010-05-25 01:29:30",141759,12.53,305.2,1.478,0.323,10.87,104.6761,11.24,12.12,18.04,0,110.2,13.5,12.03,267.2
"2010-05-25 01:30:00",141760,12.72,308.3,1.722,0.631,11.1,104.6764,11.24,12.19,18,0,110.2,13.51,12.04,270.3
"2010-05-25 01:30:30",141761,15.05,323.2,4.875,0.895,16.07,104.6749,11.24,12.44,18.38,0,110.2,13.47,12.03,285.2
"2010-05-25 01:31:00",141762,14.56,320.5,3.725,0.501,15.91,104.6749,11.24,12.36,18.1,0,110.1,13.47,12.03,282.5
"2010-05-25 01:31:30",141763,13.75,317,6.392,1.335,13.64,104.6746,11.24,12.34,18.1,0,110.2,13.47,12.03,279.0
"2010-05-25 01:32:00",141764,13.01,315.3,6.057,1.106,12.83,104.6746,11.24,12.27,18.21,0,110.1,13.47,12.03,277.3
"2010-05-25 01:32:30",141765,11.35,308.6,2.287,0.512,10.68,104.6752,11.24,12.2,18.34,0,110.2,13.5,12.03,270.6
"2010-05-25 01:33:00",141766,12.73,316.7,7.355,1.621,12.85,104.6752,11.24,12.22,18.39,0,110.1,13.47,12.03,278.7
"2010-05-25 01:33:30",141767,13.32,309.6,7.659,0.944,12.53,104.6749,11.24,12.28,18.2,0,110.2,13.47,12.03,271.6
"2010-05-25 01:34:00",141768,13.22,323.9,5.702,1.148,15.12,104.6755,11.24,12.4,18.9,0,110.1,13.47,12.03,285.9
"2010-05-25 01:34:30",141769,14.45,316.3,6.458,1.276,15.12,104.6733,11.24,12.38,18.6,0,110.2,13.47,12.03,278.3
"2010-05-25 01:35:00",141770,13.33,316,5.995,1.05,13.25,104.671,11.23,12.32,18.31,0,110.1,13.47,12.02,278.0
"2010-05-25 01:35:30",141771,13.21,317.4,6.986,1.097,12.82,104.6682,11.22,12.2,18.25,0,110.1,13.47,12.01,279.4
"2010-05-25 01:36:00",141772,13.3,316,6.666,1.09,12.9,104.66,11.2,12.25,18.47,0,110.1,13.47,11.99,278.0
"2010-05-25 01:36:30",141773,13.13,314.3,6.601,1.441,12.55,104.6442,11.16,12.25,18.68,0,110.1,13.46,11.95,276.3
"2010-05-25 01:37:00",141774,14.03,322.2,5.258,1.305,14.7,104.6425,11.16,12.29,18.7,0,110.1,13.46,11.95,284.2
"2010-05-25 01:37:30",141775,14.07,318.3,6.596,1.307,14.12,104.6425,11.16,12.31,18.67,0,110.2,13.47,11.95,280.3
"2010-05-25 01:38:00",141776,14.65,320.1,6.118,1.301,14.66,104.6425,11.16,12.41,18.81,0,110.1,13.47,11.95,282.1
"2010-05-25 01:38:30",141777,14.45,317.1,6.593,1.542,13.93,104.6425,11.16,12.22,18.55,0,110.1,13.47,11.95,279.1
"2010-05-25 01:39:00",141778,14.5,315.9,6.464,1.302,13.04,104.6425,11.16,12.23,18.43,0,110.1,13.47,11.95,277.9
"2010-05-25 01:39:30",141779,15.35,315.2,7.047,1.864,13.07,104.6425,11.16,12.21,18.44,0,110.1,13.47,11.95,277.2
"2010-05-25 01:40:00",141780,14.53,314.2,6.096,1.151,13.21,104.6425,11.16,12.28,18.41,0,110.1,13.47,11.95,276.2
"2010-05-25 01:40:30",141781,15.05,317.6,6.713,1.217,14.98,104.6425,11.16,12.32,18.36,0,110.1,13.48,11.95,279.6
"2010-05-25 01:41:00",141782,14.82,317.7,6.777,1.313,14.69,104.6425,11.16,12.26,18.25,0,110.1,13.48,11.95,279.7
"2010-05-25 01:41:30",141783,13.18,316,6.431,1.204,13.83,104.6425,11.16,12.3,18.3,0,110.1,13.47,11.95,278.0
"2010-05-25 01:42:00",141784,14.5,320.5,6.394,1.256,14.62,104.6425,11.16,12.28,18.32,0,110.1,13.47,11.95,282.5
"2010-05-25 01:42:30",141785,13.95,315.1,5.992,1.152,12.94,104.6425,11.16,12.2,18.32,0,110.1,13.47,11.95,277.1
"2010-05-25 01:43:00",141786,12.79,310,2.583,0.47,11.25,104.6425,11.16,12.24,18.46,0,110.1,13.51,11.95,272.0
"2010-05-25 01:43:30",141787,14.77,317.8,5.232,1.155,13.53,104.6425,11.16,12.11,18.38,0,110.1,13.47,11.95,279.8
"2010-05-25 01:44:00",141788,14.79,320,5.882,1.049,14.92,104.6402,11.15,12.31,18.72,0,110.1,13.47,11.94,282.0
"2010-05-25 01:44:30",141789,14.07,317.2,6.72,1.249,14.49,104.6349,11.14,12.27,18.54,0,110.1,13.47,11.93,279.2
"2010-05-25 01:45:00",141790,13.93,315.6,6.545,1.355,14.66,104.6278,11.12,12.27,18.7,0,110.1,13.47,11.91,277.6
"2010-05-25 01:45:30",141791,13.35,313.5,5.694,1.13,14.23,104.6126,11.08,12.27,18.73,0,110.1,13.47,11.87,275.5
"2010-05-25 01:46:00",141792,12.63,309.7,6.022,1.177,11.86,104.6086,11.07,12.04,18.49,0,110.1,13.47,11.86,271.7
"2010-05-25 01:46:30",141793,12.29,308.2,6.194,0.783,11.95,104.6086,11.07,12.17,18.47,0,110.1,13.47,11.86,270.2
"2010-05-25 01:47:00",141794,14.05,319.3,5.237,1.149,14.94,104.6086,11.07,12.22,18.7,0,110.1,13.47,11.86,281.3
"2010-05-25 01:47:30",141795,13,314.4,5.898,1.184,15.45,104.6086,11.07,12.3,18.48,0,110.1,13.47,11.86,276.4